STARLINK-34685

Last updated on Sat Aug 16 2025 00:02:05 GMT+0000 (Coordinated Universal Time)

1 64813U 25150Z 25227.56763806 -.00216665 00000+0 -37858-2 0 9994 2 64813 70.0005 315.3117 0005886 272.9184 87.1329 15.51217133 5113
UTC large
Height (km)
Speed (km/s)
/
Latitude / Longitude
Inclination (degrees)
Orbital Period (minutes)
Azimuth
Elevation
Range (km)
Doppler Factor

Next 0 passes for location: London (51.5072 / 0.1276)

Sorry there are no passes over London.